BREEZE-M DEB (TANK), 40507

Orbit data source: Space-Track

BREEZE-M DEB (TANK), 40507 is space debris in HEO originally from a launch on Wed, 18 Mar 2015 UTC launched from the Tyuratam Missile And Space Complex (TTMTR). Debris objects in space refer to the collection of defunct objects orbiting the Earth. Examples of debris include non-operational satellites, rocket bodies, and fragments generated from explosions, collisions, or faulty payload assembly.

Loading next visibility...
Identifier
40507, 2015-012C
Orbit
HEO
Country
Flag of CISCIS
Related business
Manufacturer
Khrunichev
Mission
Spacecraft
Bus & Motor
BRIZ TANK, Unknown motor
Mass
~1,000 kg wet, 1,000 kg dry
Launch date (UTC)
2015-03-18 (11 years ago)
Launch vehicle
Unknown
Launch site
Tyuratam Missile And Space Complex (TTMTR)
Object type
Payload
Rocket body
Debris
Shape & HBR
Torus, 2.0 m
Radar Cross Section
8.218 m², Large (>1 m²)

Expand to show TLE details & history
Last TLE update: 15 hours ago

TLE from 15 hours ago
0 BREEZE-M DEB (TANK)
1 40507U 15012C   26070.97996324  .00003933  00000-0  73806-3 0  9994
2 40507  49.4204 226.6634 5371152 234.2217  63.3554  5.00831735194445
Epoch: 2026-03-11T23:31Z
TLE epoch observation values (Epoch: 2026-03-11T23:31:08.823Z)
Latitude
0.00003°
Longitude
64.22997°
Altitude
8,598.197 km
Speed
5.061 km/s
True Right ascension
15h 06m 36s
True Declination
0° 00' 00"
Sunlit
Object was in daylight at epoch
Visualization orbit readout
Latitude
Unknown
Longitude
Unknown
Altitude
Unknown
Speed
Unknown
Apparent Right ascension
Unknown
Apparent Declination
Unknown
Sunlit
N/A
Visualization observer readout
Local Sidereal Time
19:01:53
Azimuth
Unknown
Elevation
Unknown
Doppler factor
Unknown
Orbital elements
Apogee altitude
15,803.891 km
Perigee altitude
301.729 km
Semi-major axis
14,430.947 km
Eccentricity
0.53712
Inclination
49.4204°
RAAN
226.6634°
Arg. of periapsis
234.2217°
True anomaly
125.84279°
Mean anomaly
63.3554°
Eccentric anomaly
94.05287°
Mean motion
1.25199 °/min
Orbital period
287.54 mins
BSTAR
0.00073806
Loading maneuver chart data...
Computing Atmospheric mass density...
Loading historical data...
Loading historical data...
Loading historical data...
Loading historical data...
Loading historical data...
Loading historical data...
Loading historical data...
Other satellites on launch #12 in the year 2015 (2015-03-18 UTC)

Documentation

Showing up to 5 results
|